Temp
7 7 8 8 8 8 8 8 8 8 8 9 9 9 9 8 8 8 8 8 7 8 8 8 8 8 8 8 8 8 8 8 8 8 7 7 7 7 7 7 6 6
7 7 8 8 8 8 8 8 8 8 8 9 9 9 8 8 8 7 7 7 7 7 8 8 8 8 8 8 8 8 8 8 8 7 7 7 7 7 7 7 6 6
7 7 8 8 8 8 8 8 8 8 8 8 8 8 8 8 8 7 7 7 7 7 7 8 8 8 8 8 8 8 8 7 7 7 7 7 7 7 7 6 6 6
8 8 8 8 8 8 8 8 8 8 8 8 8 8 8 8 7 7 7 7 7 7 7 8 8 8 8 8 8 8 7 7 7 7 7 7 7 7 7 6 6 6
8 8 8 8 8 8 8 8 8 8 8 8 8 8 8 8 7 7 7 7 7 7 7 8 8 8 8 8 8 7 7 7 7 7 7 7 7 7 6 6 6 6
8 8 8 8 8 8 8 8 8 8 8 8 8 8 8 7 7 7 7 7 7 7 7 7 7 7 8 8 7 7 7 7 7 7 7 7 7 7 6 6 6 6
8 8 8 8 8 8 8 8 8 8 8 8 8 8 7 7 7 7 7 7 7 7 7 7 7 7 7 7 7 7 7 7 7 7 7 7 6 6 6 6 6 6
7 8 8 8 8 8 8 8 8 8 8 8 8 8 7 7 7 7 7 7 7 7 7 7 7 7 7 7 7 7 7 7 7 7 7 6 6 6 6 6 6 6
7 7 7 8 8 8 8 8 8 8 8 8 8 7 7 7 7 7 7 7 7 7 7 7 7 7 7 7 7 7 7 7 7 7 6 6 6 6 6 6 6 5
7 7 7 8 8 8 8 8 8 8 8 8 8 7 7 7 7 7 7 7 7 7 7 6 7 7 7 7 6 6 6 7 6 6 6 6 6 6 6 6 6 5
7 7 7 7 8 8 8 8 8 8 8 8 8 7 7 7 7 7 7 7 7 7 7 6 7 7 6 6 6 6 6 6 6 6 6 6 6 6 6 6 6 5
7 7 7 7 7 7 8 8 8 8 8 8 8 8 8 8 8 8 7 7 7 7 7 6 7 6 6 6 6 6 6 6 6 6 6 6 6 6 6 6 6 5
7 7 7 7 7 7 7 7 7 7 7 7 8 8 8 8 8 8 8 8 7 7 7 6 6 6 6 6 6 6 6 6 6 6 6 6 6 6 6 6 6 5
6 7 7 7 7 7 7 7 7 7 7 7 7 8 8 8 8 8 8 8 7 7 7 6 6 6 6 5 6 6 6 6 5 6 6 5 5 6 6 6 5 5
5 6 6 6 7 7 7 7 7 6 6 7 7 7 7 7 7 7 7 7 7 7 7 6 6 6 6 5 5 6 5 5 5 5 5 5 5 5 6 5 5 5
5 5 5 5 6 6 6 6 6 6 6 6 6 7 7 7 7 7 7 7 7 6 6 6 6 6 5 5 5 5 5 5 5 5 5 5 5 5 5 5 5 5
4 4 5 5 5 5 6 6 5 5 6 6 6 6 6 7 7 7 7 7 6 6 6 6 6 5 5 5 5 5 5 5 5 5 5 5 5 5 5 5 5 5
4 4 4 5 5 5 5 5 5 5 5 5 6 6 6 7 7 7 7 6 6 6 6 5 5 4 5 5 5 5 5 5 5 5 5 5 5 5 5 5 5 5
4 4 4 4 5 5 5 5 5 5 5 5 5 5 6 6 7 7 6 6 5 5 5 5 4 4 4 4 4 4 4 5 5 5 5 5 5 5 5 5 5 5
3 4 4 4 5 5 5 5 5 5 5 5 5 5 6 6 6 6 5 5 5 5 4 4 4 4 4 4 4 4 4 4 4 4 4 4 4 4 5 5 5 5
3 3 4 4 4 5 5 5 5 5 5 5 5 5 5 6 5 5 5 4 4 4 4 4 4 4 4 4 4 4 4 4 4 4 4 4 4 4 4 4 4 4
1 2 3 3 4 4 4 4 4 4 4 5 5 5 5 5 4 4 4 4 4 3 3 3 3 4 4 3 4 4 4 4 4 4 4 4 4 4 4 4 4 4
-1 0 1 2 2 3 3 3 3 3 4 4 4 4 4 4 3 3 3 3 3 3 3 3 3 3 3 3 3 3 4 4 4 4 4 4 4 4 4 4 4 4
-1 -1 -1 0 1 1 1 2 2 2 2 3 3 3 3 3 3 3 3 3 3 3 3 3 3 3 3 3 3 3 3 3 3 3 3 3 3 3 3 4 4 4
-2 -2 -1 -1 -0 -0 0 0 1 1 1 1 1 2 2 2 2 2 2 2 2 2 2 2 2 2 2 2 2 3 3 3 3 3 3 3 3 3 3 3 3 3
-2 -2 -2 -1 -1 -1 -0 -0 -0 0 0 1 1 1 1 2 2 2 2 2 2 2 2 2 2 2 2 2 2 3 3 3 3 3 3 3 3 3 3 3 3 3
Height
3015 3017 3020 3023 3026 3029 3033 3035 3039 3042 3045 3049 3051 3054 3058 3061 3063 3065 3067 3069 3071 3073 3076 3078 3080 3081 3082 3084 3085 3086 3088 3090 3091 3091 3091 3091 3091 3091 3090 3090 3090 3089
3010 3013 3015 3018 3021 3024 3027 3031 3035 3038 3041 3044 3047 3050 3052 3056 3058 3060 3062 3064 3066 3069 3071 3073 3075 3077 3078 3079 3081 3083 3085 3086 3087 3087 3087 3087 3087 3087 3087 3086 3086 3086
3004 3007 3010 3013 3016 3020 3023 3027 3030 3033 3036 3038 3041 3044 3047 3051 3053 3055 3057 3059 3061 3064 3066 3069 3070 3072 3074 3075 3077 3079 3081 3082 3083 3083 3083 3083 3083 3083 3083 3082 3082 3082
2999 3002 3005 3009 3012 3015 3018 3021 3024 3027 3030 3033 3036 3039 3043 3045 3048 3050 3052 3054 3056 3059 3061 3064 3066 3067 3069 3071 3073 3075 3077 3078 3078 3079 3079 3080 3080 3079 3079 3079 3078 3078
2993 2996 3000 3003 3007 3010 3012 3016 3019 3022 3025 3028 3031 3035 3037 3040 3042 3045 3047 3049 3051 3054 3057 3059 3061 3063 3065 3067 3069 3070 3072 3073 3074 3075 3075 3076 3076 3076 3076 3075 3075 3075
2987 2990 2994 2997 3001 3004 3007 3010 3014 3016 3019 3022 3025 3029 3032 3035 3037 3040 3042 3044 3047 3049 3052 3054 3056 3058 3060 3063 3064 3066 3068 3069 3070 3071 3071 3072 3072 3072 3072 3072 3072 3072
2981 2984 2987 2991 2994 2998 3001 3004 3007 3010 3014 3016 3020 3023 3027 3030 3032 3035 3037 3040 3042 3044 3047 3049 3052 3054 3056 3058 3060 3062 3064 3065 3066 3067 3068 3068 3069 3069 3069 3069 3068 3068
2974 2977 2981 2984 2987 2991 2994 2998 3001 3005 3008 3011 3014 3018 3021 3024 3027 3030 3032 3035 3037 3039 3041 3044 3047 3050 3052 3054 3056 3058 3060 3061 3062 3063 3064 3065 3065 3065 3065 3065 3065 3064
2967 2971 2974 2977 2980 2984 2988 2991 2995 2999 3003 3006 3010 3013 3016 3019 3022 3025 3027 3029 3031 3033 3036 3039 3042 3046 3048 3050 3052 3054 3056 3057 3058 3059 3060 3061 3061 3062 3062 3061 3061 3061
2961 2965 2968 2971 2974 2978 2981 2985 2989 2993 2997 3000 3004 3007 3010 3013 3016 3019 3021 3023 3025 3028 3032 3035 3038 3041 3043 3045 3048 3050 3052 3053 3054 3055 3056 3057 3058 3058 3058 3058 3058 3058
2955 2958 2962 2965 2969 2972 2976 2979 2982 2986 2990 2994 2997 3001 3004 3007 3009 3012 3015 3017 3020 3023 3027 3030 3034 3037 3039 3041 3044 3046 3047 3049 3050 3051 3052 3053 3054 3054 3055 3055 3055 3055
2950 2953 2956 2959 2962 2966 2969 2973 2976 2980 2983 2987 2990 2994 2997 3000 3002 3005 3008 3011 3015 3018 3022 3026 3029 3032 3034 3037 3039 3041 3043 3044 3046 3047 3048 3049 3050 3051 3051 3051 3051 3051
2943 2947 2950 2953 2956 2959 2962 2966 2969 2973 2977 2980 2983 2986 2990 2993 2996 2999 3002 3005 3009 3013 3017 3021 3024 3027 3029 3032 3034 3036 3038 3040 3041 3043 3044 3045 3046 3047 3048 3048 3048 3048
2937 2940 2943 2947 2949 2953 2956 2959 2963 2967 2970 2974 2977 2980 2983 2986 2989 2993 2996 2999 3003 3006 3011 3015 3019 3021 3024 3027 3030 3032 3034 3036 3037 3039 3040 3041 3043 3044 3044 3044 3044 3044
2932 2935 2938 2941 2943 2946 2950 2953 2957 2961 2964 2968 2971 2975 2978 2980 2983 2986 2989 2992 2996 3000 3005 3009 3013 3016 3019 3023 3025 3027 3030 3031 3033 3035 3036 3038 3039 3040 3041 3041 3041 3041
2927 2930 2933 2935 2938 2941 2944 2947 2951 2955 2958 2962 2966 2969 2972 2975 2977 2980 2983 2986 2990 2994 2999 3003 3007 3011 3015 3018 3021 3023 3025 3027 3029 3031 3032 3034 3035 3036 3037 3037 3037 3037
2922 2925 2928 2931 2933 2936 2939 2942 2945 2949 2953 2956 2960 2963 2966 2969 2972 2974 2977 2981 2985 2989 2994 2998 3002 3006 3010 3013 3016 3018 3020 3023 3025 3026 3028 3030 3032 3033 3034 3034 3034 3034
2918 2920 2923 2926 2928 2931 2934 2937 2940 2943 2947 2951 2954 2957 2960 2963 2966 2969 2972 2976 2980 2984 2989 2994 2998 3002 3006 3009 3011 3014 3016 3018 3020 3022 3024 3026 3028 3029 3030 3030 3030 3030
2914 2915 2918 2920 2923 2926 2928 2931 2934 2938 2941 2945 2948 2952 2955 2958 2961 2964 2967 2971 2975 2980 2985 2989 2994 2997 3001 3004 3006 3009 3011 3014 3016 3018 3020 3022 3024 3026 3027 3027 3027 3027
2910 2911 2913 2915 2917 2920 2923 2926 2929 2932 2935 2939 2942 2946 2949 2952 2955 2959 2963 2967 2972 2977 2981 2986 2990 2993 2997 3000 3002 3004 3007 3009 3012 3014 3016 3019 3020 3022 3023 3024 3024 3024
2906 2907 2909 2910 2912 2914 2917 2920 2923 2926 2930 2933 2937 2941 2944 2947 2951 2955 2959 2964 2969 2973 2978 2982 2986 2989 2992 2995 2997 3000 3003 3005 3007 3010 3012 3015 3017 3018 3020 3020 3020 3020
2904 2905 2906 2907 2908 2910 2912 2915 2918 2922 2925 2928 2932 2936 2939 2943 2947 2951 2956 2961 2966 2970 2974 2978 2982 2985 2988 2990 2993 2995 2998 3000 3003 3006 3008 3011 3013 3014 3016 3017 3017 3017
2902 2903 2904 2905 2906 2907 2909 2911 2914 2918 2922 2925 2928 2932 2936 2940 2944 2948 2953 2958 2962 2966 2970 2974 2978 2980 2983 2985 2988 2990 2993 2996 2999 3002 3004 3007 3009 3010 3012 3013 3014 3014
2898 2901 2903 2904 2906 2907 2908 2909 2912 2915 2919 2922 2926 2929 2933 2937 2942 2946 2950 2954 2958 2962 2966 2970 2973 2976 2978 2981 2983 2986 2989 2992 2995 2998 3000 3003 3005 3006 3008 3009 3010 3011
2895 2897 2900 2902 2904 2906 2908 2909 2911 2913 2916 2920 2924 2927 2931 2935 2939 2942 2946 2950 2954 2958 2961 2965 2968 2971 2973 2976 2979 2982 2985 2988 2991 2993 2996 2999 3001 3002 3004 3006 3007 3008
2893 2894 2896 2899 2901 2904 2906 2908 2910 2912 2915 2918 2921 2925 2929 2932 2935 2938 2942 2946 2950 2954 2957 2960 2963 2966 2969 2972 2975 2977 2980 2983 2986 2989 2992 2995 2997 2998 3000 3002 3003 3005
Wind_Speed
49 49 49 48 48 48 47 46 45 44 44 43 44 44 44 43 41 40 39 39 39 38 37 36 36 36 37 38 39 38 36 34 33 33 32 30 30 29 28 28 28 29
50 49 49 49 49 49 48 47 45 44 43 43 44 44 44 43 41 40 40 41 41 39 38 37 37 37 39 39 40 38 36 34 33 32 31 30 29 28 28 28 29 29
50 49 49 49 49 49 48 47 46 45 45 45 45 46 45 44 43 42 43 43 43 41 39 38 38 38 39 40 40 38 35 33 32 31 31 30 29 28 27 28 29 29
51 50 49 49 49 49 48 48 48 47 47 47 46 46 46 45 44 44 44 45 45 43 41 39 39 39 39 40 40 37 34 33 32 31 30 29 28 27 27 28 29 29
52 51 50 50 50 50 50 50 49 48 48 47 47 47 47 47 46 45 45 46 46 45 43 41 41 40 40 39 39 36 34 33 31 31 30 28 27 27 27 29 29 29
54 53 52 52 51 50 50 50 49 49 49 48 48 48 48 48 47 46 46 46 46 46 45 43 42 41 40 39 37 35 33 32 31 31 29 27 27 27 27 29 29 28
56 55 54 53 52 52 51 50 49 49 49 49 49 49 50 49 49 48 47 47 47 47 46 44 43 42 40 38 37 35 33 32 31 30 28 27 26 27 27 28 29 28
57 57 56 55 54 53 52 51 50 49 49 49 50 50 51 51 51 50 49 49 49 48 47 46 44 42 40 38 36 35 34 32 31 30 27 26 26 26 27 28 28 28
57 57 57 57 56 54 54 53 52 51 51 51 51 51 51 51 51 51 51 51 51 50 49 47 45 42 40 38 37 35 34 32 30 29 27 26 26 26 27 27 27 27
56 56 55 56 56 56 55 55 55 55 54 54 54 54 54 53 53 54 53 53 53 52 50 48 45 42 40 39 37 35 34 32 30 28 27 26 26 26 26 27 27 27
55 55 54 54 55 55 56 56 57 57 57 56 56 56 56 56 56 56 55 55 54 52 50 49 45 43 41 39 37 35 33 31 29 28 26 26 25 25 26 26 26 26
55 56 55 54 54 54 55 56 57 57 57 56 56 56 57 57 57 57 56 56 55 52 51 49 45 43 41 39 37 36 33 31 29 27 26 25 25 25 25 26 25 24
54 56 56 55 55 54 54 54 54 53 53 53 53 53 55 56 57 57 57 57 55 53 52 49 46 44 42 40 38 36 33 31 29 27 26 26 25 25 25 25 23 22
49 52 54 55 56 55 55 55 54 52 50 48 48 49 50 51 54 55 56 57 55 54 51 49 46 45 42 40 38 35 33 31 28 27 26 26 25 24 24 23 22 21
43 45 48 51 54 55 55 55 55 53 51 48 46 45 45 46 48 51 53 55 55 53 50 48 46 44 42 40 37 35 32 30 28 28 27 26 25 24 23 22 21 19
41 40 41 44 47 50 53 54 54 53 52 50 48 46 45 45 46 48 49 51 52 51 49 48 46 44 41 39 37 34 32 30 29 28 28 26 25 23 22 21 20 18
41 40 39 40 41 43 46 49 51 52 51 51 50 48 47 47 47 48 48 49 50 49 48 46 45 43 41 39 37 35 33 31 30 29 28 27 25 23 21 20 19 18
42 40 39 39 40 40 41 44 47 50 51 51 50 49 48 48 48 48 48 48 49 48 47 45 43 41 40 38 37 35 33 32 30 29 28 27 25 23 21 20 18 17
39 40 40 40 40 40 40 41 43 46 49 50 49 48 48 47 47 47 47 48 48 48 46 44 43 42 40 39 37 36 34 32 31 30 29 27 25 23 21 19 18 16
37 38 39 39 40 41 41 41 42 43 45 47 47 47 46 46 46 46 47 47 47 46 44 43 42 41 40 39 38 36 34 33 32 31 29 28 26 24 22 20 18 16
34 36 37 37 38 39 40 41 42 42 43 44 45 45 45 45 45 45 46 46 45 44 44 43 42 41 40 39 38 36 34 34 33 31 30 29 27 25 23 21 19 17
28 31 34 35 36 36 37 38 39 41 42 42 43 43 44 45 45 45 45 44 44 43 43 43 42 41 40 40 38 36 36 35 34 32 31 30 28 26 25 23 21 18
23 26 29 31 32 34 35 36 37 38 40 42 42 43 44 45 45 44 44 43 43 44 43 43 42 42 41 40 38 37 36 36 34 33 32 30 29 28 26 24 22 19
20 23 25 27 29 31 33 34 36 38 39 41 42 43 43 43 43 43 43 44 44 44 44 43 43 42 41 40 38 37 37 36 35 34 33 31 30 29 27 25 23 21
18 22 24 26 28 29 31 33 35 37 39 40 41 41 42 42 43 43 44 44 44 44 44 44 43 42 41 40 39 38 37 36 36 35 33 31 30 30 28 26 24 23
17 20 23 26 27 29 30 32 34 37 38 39 40 40 41 42 43 44 44 44 44 44 44 43 43 42 41 40 39 39 38 37 36 35 33 31 31 30 28 27 26 25
Wind_Direction
235 235 234 233 232 231 230 230 230 231 232 232 232 232 233 235 236 237 240 242 244 245 246 247 248 249 249 251 253 255 257 260 262 263 265 269 273 278 281 284 283 283
235 234 234 234 232 231 230 231 232 232 233 233 233 232 232 233 233 235 238 241 243 244 245 246 248 249 249 250 252 254 256 258 259 261 264 268 273 277 281 283 282 283
235 234 234 234 234 232 231 231 232 233 233 233 233 232 231 231 232 234 237 240 242 243 244 246 247 248 249 250 251 253 255 256 258 260 263 268 273 278 281 281 281 283
236 234 234 234 234 233 232 232 232 233 233 233 233 232 231 230 231 233 237 239 241 242 243 245 247 248 249 250 251 252 253 255 257 260 263 268 273 277 279 280 281 282
236 235 234 233 233 233 233 233 233 233 234 234 233 232 230 230 231 234 237 239 240 241 243 245 247 248 248 250 251 251 252 254 256 259 262 267 273 276 278 279 280 282
235 235 234 233 233 233 233 233 233 233 233 234 233 231 230 230 231 235 237 239 240 240 242 245 246 247 248 249 249 249 251 253 255 258 262 267 271 274 276 278 280 280
235 235 234 233 233 233 233 233 233 233 233 233 232 230 229 229 231 234 237 238 239 240 242 245 245 246 247 248 247 247 249 252 254 256 261 265 269 272 275 277 279 280
236 235 235 234 233 232 233 233 234 234 234 234 234 232 231 231 232 234 236 237 239 241 243 244 244 244 246 246 245 246 248 250 252 255 259 263 267 270 273 276 278 279
236 236 236 235 235 234 233 234 234 235 235 235 235 234 233 234 235 236 237 239 240 242 243 243 243 243 244 244 243 244 246 247 250 253 257 261 265 268 272 275 277 277
236 237 237 237 236 236 235 235 234 234 234 235 235 235 235 236 238 238 238 240 241 241 242 242 242 242 242 242 241 242 243 245 247 251 254 258 262 266 270 273 274 274
236 236 237 238 237 237 237 237 236 236 236 235 235 236 236 237 238 239 239 239 240 240 240 240 240 241 241 240 239 240 241 243 245 248 252 256 260 264 267 270 271 272
234 234 235 236 236 236 236 237 237 238 238 237 237 237 237 237 238 239 239 240 240 239 238 238 239 239 238 237 236 237 238 240 242 246 249 253 257 261 265 268 270 272
232 232 233 233 234 234 235 235 235 236 237 237 237 237 237 237 237 238 239 239 239 238 237 236 236 236 235 233 234 235 236 237 240 243 246 250 253 258 262 266 269 270
229 230 231 232 233 233 233 234 234 234 235 235 235 235 235 235 236 236 237 237 237 236 234 232 232 232 231 231 232 232 234 235 237 240 243 246 250 255 260 264 268 270
228 229 230 231 232 232 232 233 233 233 233 233 232 232 232 232 233 234 234 235 234 233 230 228 228 229 228 229 229 230 231 232 234 237 240 243 247 252 257 263 267 268
227 229 231 232 233 233 232 232 231 231 231 231 230 230 230 230 232 233 233 233 231 229 226 224 224 225 225 226 227 227 228 229 231 233 237 240 244 248 254 260 265 266
228 230 232 234 234 235 234 232 231 229 229 229 230 230 230 231 231 232 232 231 228 224 222 221 222 222 222 224 225 225 226 227 229 232 235 238 241 245 250 257 262 265
231 232 234 234 235 235 236 235 233 231 229 228 229 231 231 231 231 232 231 228 223 219 217 218 218 219 220 222 223 223 224 225 227 230 233 236 238 241 247 254 260 263
233 233 234 234 235 235 236 236 235 233 230 229 230 230 231 231 231 230 226 221 217 215 214 215 215 216 218 219 220 221 222 223 226 228 231 234 236 239 244 251 257 261
233 233 232 232 233 234 235 235 235 233 231 230 230 230 230 230 228 225 220 215 212 212 212 213 214 216 217 218 219 220 220 223 225 227 230 232 234 237 242 248 254 259
235 233 231 230 230 231 232 233 233 232 230 229 228 228 227 225 221 217 213 210 210 210 211 212 213 214 215 217 218 219 220 222 224 226 229 231 234 237 241 246 251 257
239 235 232 230 227 226 226 227 228 228 226 225 224 223 220 217 212 209 208 208 209 210 211 212 213 213 215 216 217 218 219 222 224 226 229 231 234 237 240 243 247 252
240 237 232 228 224 221 219 219 220 221 220 219 217 215 213 210 207 206 206 207 209 210 211 212 212 213 214 215 216 217 220 222 224 226 228 231 233 237 239 241 244 248
233 234 233 229 225 220 216 213 212 212 213 212 211 209 207 206 205 205 206 207 209 210 211 212 212 212 213 214 216 218 220 223 225 226 228 230 232 235 237 238 240 244
226 229 231 231 229 224 219 215 211 209 209 208 208 206 205 204 205 205 207 208 209 210 211 211 211 212 213 214 216 219 221 223 224 226 227 229 231 233 235 236 237 240
223 225 227 229 231 229 225 221 217 213 211 209 208 207 206 206 206 207 208 209 210 211 212 212 212 212 213 215 217 219 222 223 224 226 227 228 230 232 233 233 235 236